TimeMST,TemperatureF,Dew PointF,Humidity,Sea Level PressureIn,VisibilityMPH,Wind Direction,Wind SpeedMPH,Gust SpeedMPH,PrecipitationIn,Events,Conditions,WindDirDegrees,DateUTC
12:53 AM,-9999,-9999,N/A,30.03,10.0,NW,20.7,-,N/A,,Overcast,310,2012-12-09 07:53:00
1:53 AM,-9999,-9999,N/A,30.04,10.0,NNW,21.9,-,N/A,,Overcast,330,2012-12-09 08:53:00
2:53 AM,-9999,-9999,N/A,30.08,10.0,NW,15.0,-,N/A,,Overcast,310,2012-12-09 09:53:00
3:53 AM,-9999,-9999,N/A,30.10,10.0,NNW,18.4,-,N/A,,Overcast,340,2012-12-09 10:53:00
4:53 AM,-9999,-9999,N/A,30.12,10.0,NW,16.1,23.0,N/A,,Overcast,320,2012-12-09 11:53:00
5:53 AM,-9999,-9999,N/A,30.15,10.0,NW,13.8,-,N/A,,Overcast,320,2012-12-09 12:53:00
6:53 AM,-9999,-9999,N/A,30.18,10.0,NNW,12.7,-,N/A,,Mostly Cloudy,330,2012-12-09 13:53:00
7:53 AM,-9999,-9999,N/A,30.20,10.0,NNW,12.7,-,N/A,,Clear,330,2012-12-09 14:53:00
8:53 AM,-9999,-9999,N/A,30.23,10.0,WNW,15.0,-,N/A,,Clear,300,2012-12-09 15:53:00
9:53 AM,-9999,-9999,N/A,30.24,10.0,WNW,12.7,-,N/A,,Clear,300,2012-12-09 16:53:00
10:53 AM,-9999,-9999,N/A,30.23,10.0,WNW,11.5,-,N/A,,Clear,290,2012-12-09 17:53:00
11:53 AM,-9999,-9999,N/A,30.21,10.0,NW,10.4,-,N/A,,Clear,310,2012-12-09 18:53:00
12:53 PM,-9999,-9999,N/A,30.19,10.0,WNW,12.7,-,N/A,,Clear,290,2012-12-09 19:53:00
1:53 PM,-9999,-9999,N/A,30.16,10.0,NW,11.5,-,N/A,,Clear,310,2012-12-09 20:53:00
2:53 PM,-9999,-9999,N/A,30.16,10.0,WNW,10.4,-,N/A,,Clear,300,2012-12-09 21:53:00
3:53 PM,-9999,-9999,N/A,30.14,10.0,NW,9.2,-,N/A,,Clear,320,2012-12-09 22:53:00
4:53 PM,-9999,-9999,N/A,30.12,10.0,West,3.5,-,N/A,,Clear,270,2012-12-09 23:53:00
5:53 PM,-9999,-9999,N/A,30.11,10.0,SSW,9.2,-,N/A,,Clear,200,2012-12-10 00:53:00
6:53 PM,-9999,-9999,N/A,30.08,10.0,South,5.8,-,N/A,,Clear,180,2012-12-10 01:53:00
7:53 PM,-9999,-9999,N/A,30.04,10.0,South,4.6,-,N/A,,Clear,190,2012-12-10 02:53:00
8:53 PM,-9999,-9999,N/A,30.00,10.0,SE,5.8,-,N/A,,Clear,140,2012-12-10 03:53:00
9:53 PM,-9999,-9999,N/A,29.95,10.0,SE,4.6,-,N/A,,Clear,140,2012-12-10 04:53:00
10:53 PM,-9999,-9999,N/A,29.93,10.0,South,3.5,-,N/A,,Clear,180,2012-12-10 05:53:00
11:53 PM,-9999,-9999,N/A,29.90,10.0,Calm,Calm,-,N/A,,Mostly Cloudy,0,2012-12-10 06:53:00